Year,Month,Day,Hour,Minute,Value (Times are PST for temperature in C)
2022,04,25,00,00,8.90
2022,04,25,00,01,8.90
2022,04,25,00,02,8.90
2022,04,25,00,03,8.90
2022,04,25,00,04,8.90
2022,04,25,00,05,8.90
2022,04,25,00,06,8.90
2022,04,25,00,07,9.00
2022,04,25,00,08,9.00
2022,04,25,00,09,9.00
2022,04,25,00,10,9.00
2022,04,25,00,11,9.00
2022,04,25,00,12,9.00
2022,04,25,00,13,9.00
2022,04,25,00,14,9.00
2022,04,25,00,15,9.00
2022,04,25,00,16,9.00
2022,04,25,00,17,9.00
2022,04,25,00,18,9.00
2022,04,25,00,19,9.00
2022,04,25,00,20,9.00
2022,04,25,00,21,9.00
2022,04,25,00,22,9.00
2022,04,25,00,23,9.00
2022,04,25,00,24,9.00
2022,04,25,00,25,9.00
2022,04,25,00,26,9.00
2022,04,25,00,27,9.00
2022,04,25,00,28,9.00
2022,04,25,00,29,9.00
2022,04,25,00,30,9.00
2022,04,25,00,31,9.00
2022,04,25,00,32,8.90
2022,04,25,00,33,8.90
2022,04,25,00,34,8.90
2022,04,25,00,35,8.90
2022,04,25,00,36,8.90
2022,04,25,00,37,8.90
2022,04,25,00,38,8.90
2022,04,25,00,39,8.90
2022,04,25,00,40,8.90
2022,04,25,00,41,8.90
2022,04,25,00,42,8.90
2022,04,25,00,43,8.90
2022,04,25,00,44,8.90
2022,04,25,00,45,8.90
2022,04,25,00,46,8.90
2022,04,25,00,47,8.90
2022,04,25,00,48,8.90
2022,04,25,00,49,8.90
2022,04,25,00,50,8.90
2022,04,25,00,51,8.90
2022,04,25,00,52,8.90
2022,04,25,00,53,8.90
2022,04,25,00,54,8.90
2022,04,25,00,55,8.90
2022,04,25,00,56,8.90
2022,04,25,00,57,8.90
2022,04,25,00,58,8.90
2022,04,25,00,59,8.90
2022,04,25,01,00,8.90
2022,04,25,01,01,8.90
2022,04,25,01,02,8.90
2022,04,25,01,03,8.90
2022,04,25,01,04,8.90
2022,04,25,01,05,8.90
2022,04,25,01,06,8.90
2022,04,25,01,07,8.90
2022,04,25,01,08,8.90
2022,04,25,01,09,8.90
2022,04,25,01,10,8.90
2022,04,25,01,11,8.90
2022,04,25,01,12,8.90
2022,04,25,01,13,8.80
2022,04,25,01,14,8.80
2022,04,25,01,15,8.80
2022,04,25,01,16,8.80
2022,04,25,01,17,8.80
2022,04,25,01,18,8.80
2022,04,25,01,19,8.90
2022,04,25,01,20,8.90
2022,04,25,01,21,8.90
2022,04,25,01,22,8.80
2022,04,25,01,23,8.80
2022,04,25,01,24,8.80
2022,04,25,01,25,8.80
2022,04,25,01,26,8.80
2022,04,25,01,27,8.80
2022,04,25,01,28,8.80
2022,04,25,01,29,8.80
2022,04,25,01,30,8.80
2022,04,25,01,31,8.80
2022,04,25,01,32,8.80
2022,04,25,01,33,8.80
2022,04,25,01,34,8.80
2022,04,25,01,35,8.80
2022,04,25,01,36,8.80
2022,04,25,01,37,8.80
2022,04,25,01,38,8.80
2022,04,25,01,39,8.70
2022,04,25,01,40,8.70
2022,04,25,01,41,8.70
2022,04,25,01,42,8.70
2022,04,25,01,43,8.70
2022,04,25,01,44,8.70
2022,04,25,01,45,8.70
2022,04,25,01,46,8.70
2022,04,25,01,47,8.70
2022,04,25,01,48,8.70
2022,04,25,01,49,8.70
2022,04,25,01,50,8.70
2022,04,25,01,51,8.70
2022,04,25,01,52,8.70
2022,04,25,01,53,8.60
2022,04,25,01,54,8.60
2022,04,25,01,55,8.60
2022,04,25,01,56,8.60
2022,04,25,01,57,8.60
2022,04,25,01,58,8.60
2022,04,25,01,59,8.60
2022,04,25,02,00,8.60
2022,04,25,02,01,8.60
2022,04,25,02,02,8.60
2022,04,25,02,03,8.60
2022,04,25,02,04,8.70
2022,04,25,02,05,8.70
2022,04,25,02,06,8.70
2022,04,25,02,07,8.70
2022,04,25,02,08,8.70
2022,04,25,02,09,8.70
2022,04,25,02,10,8.70
2022,04,25,02,11,8.70
2022,04,25,02,12,8.70
2022,04,25,02,13,8.70
2022,04,25,02,14,8.70
2022,04,25,02,15,8.70
2022,04,25,02,16,8.70
2022,04,25,02,17,8.70
2022,04,25,02,18,8.70
2022,04,25,02,19,8.70
2022,04,25,02,20,8.70
2022,04,25,02,21,8.70
2022,04,25,02,22,8.70
2022,04,25,02,23,8.70
2022,04,25,02,24,8.70
2022,04,25,02,25,8.70
2022,04,25,02,26,8.70
2022,04,25,02,27,8.70
2022,04,25,02,28,8.70
2022,04,25,02,29,8.70
2022,04,25,02,30,8.70
2022,04,25,02,31,8.70
2022,04,25,02,32,8.70
2022,04,25,02,33,8.70
2022,04,25,02,34,8.70
2022,04,25,02,35,8.70
2022,04,25,02,36,8.70
2022,04,25,02,37,8.70
2022,04,25,02,38,8.70
2022,04,25,02,39,8.70
2022,04,25,02,40,8.70
2022,04,25,02,41,8.70
2022,04,25,02,42,8.80
2022,04,25,02,43,8.80
2022,04,25,02,44,8.80
2022,04,25,02,45,8.80
2022,04,25,02,46,8.80
2022,04,25,02,47,8.90
2022,04,25,02,48,8.90
2022,04,25,02,49,8.90
2022,04,25,02,50,8.90
2022,04,25,02,51,8.90
2022,04,25,02,52,8.90
2022,04,25,02,53,8.90
2022,04,25,02,54,8.90
2022,04,25,02,55,8.90
2022,04,25,02,56,8.90
2022,04,25,02,57,8.90
2022,04,25,02,58,8.90
2022,04,25,02,59,8.90
2022,04,25,03,00,8.90
2022,04,25,03,01,8.80
2022,04,25,03,02,8.80
2022,04,25,03,03,8.80
2022,04,25,03,04,8.80
2022,04,25,03,05,8.80
2022,04,25,03,06,8.80
2022,04,25,03,07,8.80
2022,04,25,03,08,8.80
2022,04,25,03,09,8.80
2022,04,25,03,10,8.80
2022,04,25,03,11,8.80
2022,04,25,03,12,8.80
2022,04,25,03,13,8.80
2022,04,25,03,14,8.80
2022,04,25,03,15,8.80
2022,04,25,03,16,8.70
2022,04,25,03,17,8.70
2022,04,25,03,18,8.70
2022,04,25,03,19,8.70
2022,04,25,03,20,8.70
2022,04,25,03,21,8.70
2022,04,25,03,22,8.70
2022,04,25,03,23,8.70
2022,04,25,03,24,8.70
2022,04,25,03,25,8.70
2022,04,25,03,26,8.70
2022,04,25,03,27,8.70
2022,04,25,03,28,8.70
2022,04,25,03,29,8.70
2022,04,25,03,30,8.70
2022,04,25,03,31,8.70
2022,04,25,03,32,8.70
2022,04,25,03,33,8.70
2022,04,25,03,34,8.70
2022,04,25,03,35,8.70
2022,04,25,03,36,8.70
2022,04,25,03,37,8.70
2022,04,25,03,38,8.70
2022,04,25,03,39,8.70
2022,04,25,03,40,8.60
2022,04,25,03,41,8.60
2022,04,25,03,42,8.60
2022,04,25,03,43,8.60
2022,04,25,03,44,8.60
2022,04,25,03,45,8.60
2022,04,25,03,46,8.60
2022,04,25,03,47,8.60
2022,04,25,03,48,8.60
2022,04,25,03,49,8.60
2022,04,25,03,50,8.60
2022,04,25,03,51,8.60
2022,04,25,03,52,8.60
2022,04,25,03,53,8.60
2022,04,25,03,54,8.60
2022,04,25,03,55,8.60
2022,04,25,03,56,8.50
2022,04,25,03,57,8.50
2022,04,25,03,58,8.50
2022,04,25,03,59,8.50
2022,04,25,04,00,8.50
2022,04,25,04,01,8.50
2022,04,25,04,02,8.50
2022,04,25,04,03,8.50
2022,04,25,04,04,8.50
2022,04,25,04,05,8.50
2022,04,25,04,06,8.50
2022,04,25,04,07,8.60
2022,04,25,04,08,8.60
2022,04,25,04,09,8.60
2022,04,25,04,10,8.60
2022,04,25,04,11,8.70
2022,04,25,04,12,8.70
2022,04,25,04,13,8.70
2022,04,25,04,14,8.70
2022,04,25,04,15,8.70
2022,04,25,04,16,8.70
2022,04,25,04,17,8.70
2022,04,25,04,18,8.70
2022,04,25,04,19,8.70
2022,04,25,04,20,8.80
2022,04,25,04,21,8.80
2022,04,25,04,22,8.80
2022,04,25,04,23,8.80
2022,04,25,04,24,8.90
2022,04,25,04,25,8.90
2022,04,25,04,26,8.90
2022,04,25,04,27,8.90
2022,04,25,04,28,8.90
2022,04,25,04,29,9.00
2022,04,25,04,30,9.00
2022,04,25,04,31,9.00
2022,04,25,04,32,9.00
2022,04,25,04,33,9.00
2022,04,25,04,34,9.10
2022,04,25,04,35,9.10
2022,04,25,04,36,9.10
2022,04,25,04,37,9.10
2022,04,25,04,38,9.10
2022,04,25,04,39,9.10
2022,04,25,04,40,9.00
2022,04,25,04,41,8.90
2022,04,25,04,42,8.90
2022,04,25,04,43,8.90
2022,04,25,04,44,8.80
2022,04,25,04,45,8.70
2022,04,25,04,46,8.70
2022,04,25,04,47,8.70
2022,04,25,04,48,8.70
2022,04,25,04,49,8.70
2022,04,25,04,50,8.70
2022,04,25,04,51,8.60
2022,04,25,04,52,8.60
2022,04,25,04,53,8.60
2022,04,25,04,54,8.60
2022,04,25,04,55,8.60
2022,04,25,04,56,8.50
2022,04,25,04,57,8.50
2022,04,25,04,58,8.50
2022,04,25,04,59,8.50
2022,04,25,05,00,8.50
2022,04,25,05,01,8.50
2022,04,25,05,02,8.40
2022,04,25,05,03,8.40
2022,04,25,05,04,8.40
2022,04,25,05,05,8.40
2022,04,25,05,06,8.40
2022,04,25,05,07,8.40
2022,04,25,05,08,8.40
2022,04,25,05,09,8.40
2022,04,25,05,10,8.40
2022,04,25,05,11,8.30
2022,04,25,05,12,8.30
2022,04,25,05,13,8.30
2022,04,25,05,14,8.30
2022,04,25,05,15,8.30
2022,04,25,05,16,8.30
2022,04,25,05,17,8.30
2022,04,25,05,18,8.20
2022,04,25,05,19,8.20
2022,04,25,05,20,8.20
2022,04,25,05,21,8.20
2022,04,25,05,22,8.20
2022,04,25,05,23,8.20
2022,04,25,05,24,8.20
2022,04,25,05,25,8.20
2022,04,25,05,26,8.20
2022,04,25,05,27,8.20
2022,04,25,05,28,8.20
2022,04,25,05,29,8.20
2022,04,25,05,30,8.20
2022,04,25,05,31,8.20
2022,04,25,05,32,8.20
2022,04,25,05,33,8.20
2022,04,25,05,34,8.20
2022,04,25,05,35,8.20
2022,04,25,05,36,8.20
2022,04,25,05,37,8.20
2022,04,25,05,38,8.20
2022,04,25,05,39,8.20
2022,04,25,05,40,8.20
2022,04,25,05,41,8.20
2022,04,25,05,42,8.10
2022,04,25,05,43,8.10
2022,04,25,05,44,8.10
2022,04,25,05,45,8.10
2022,04,25,05,46,8.10
2022,04,25,05,47,8.10
2022,04,25,05,48,8.10
2022,04,25,05,49,8.10
2022,04,25,05,50,8.10
2022,04,25,05,51,8.00
2022,04,25,05,52,8.00
2022,04,25,05,53,8.00
2022,04,25,05,54,8.00
2022,04,25,05,55,8.00
2022,04,25,05,56,8.00
2022,04,25,05,57,7.90
2022,04,25,05,58,7.90
2022,04,25,05,59,7.90
2022,04,25,06,00,7.90
2022,04,25,06,01,7.90
2022,04,25,06,02,7.90
2022,04,25,06,03,7.90
2022,04,25,06,04,7.80
2022,04,25,06,05,7.80
2022,04,25,06,06,7.80
2022,04,25,06,07,7.80
2022,04,25,06,08,7.80
2022,04,25,06,09,7.80
2022,04,25,06,10,7.80
2022,04,25,06,11,7.80
2022,04,25,06,12,7.80
2022,04,25,06,13,7.80
2022,04,25,06,14,7.80
2022,04,25,06,15,7.80
2022,04,25,06,16,7.80
2022,04,25,06,17,7.80
2022,04,25,06,18,7.80
2022,04,25,06,19,7.80
2022,04,25,06,20,7.80
2022,04,25,06,21,7.80
2022,04,25,06,22,7.80
2022,04,25,06,23,7.80
2022,04,25,06,24,7.80
2022,04,25,06,25,7.80
2022,04,25,06,26,7.80
2022,04,25,06,27,7.80
2022,04,25,06,28,7.80
2022,04,25,06,29,7.80
2022,04,25,06,30,7.80
2022,04,25,06,31,7.80
2022,04,25,06,32,7.80
2022,04,25,06,33,7.80
2022,04,25,06,34,7.80
2022,04,25,06,35,7.80
2022,04,25,06,36,7.80
2022,04,25,06,37,7.80
2022,04,25,06,38,7.80
2022,04,25,06,39,7.80
2022,04,25,06,40,7.80
2022,04,25,06,41,7.80
2022,04,25,06,42,7.80
2022,04,25,06,43,7.80
2022,04,25,06,44,7.80
2022,04,25,06,45,7.80
2022,04,25,06,46,7.80
2022,04,25,06,47,7.80
2022,04,25,06,48,7.80
2022,04,25,06,49,7.80
2022,04,25,06,50,7.80
2022,04,25,06,51,7.90
2022,04,25,06,52,7.90
2022,04,25,06,53,7.90
2022,04,25,06,54,7.90
2022,04,25,06,55,7.90
2022,04,25,06,56,7.90
2022,04,25,06,57,7.90
2022,04,25,06,58,7.90
2022,04,25,06,59,7.90
2022,04,25,07,00,7.90
2022,04,25,07,01,7.90
2022,04,25,07,02,7.90
2022,04,25,07,03,7.90
2022,04,25,07,04,7.90
2022,04,25,07,05,7.90
2022,04,25,07,06,7.90
2022,04,25,07,07,7.90
2022,04,25,07,08,7.90
2022,04,25,07,09,7.90
2022,04,25,07,10,7.90
2022,04,25,07,11,7.90
2022,04,25,07,12,7.90
2022,04,25,07,13,7.90
2022,04,25,07,14,7.90
2022,04,25,07,15,7.90
2022,04,25,07,16,7.90
2022,04,25,07,17,7.90
2022,04,25,07,18,7.90
2022,04,25,07,19,8.00
2022,04,25,07,20,8.00
2022,04,25,07,21,8.00
2022,04,25,07,22,8.00
2022,04,25,07,23,8.00
2022,04,25,07,24,8.00
2022,04,25,07,25,8.00
2022,04,25,07,26,8.00
2022,04,25,07,27,8.00
2022,04,25,07,28,8.10
2022,04,25,07,29,8.10
2022,04,25,07,30,8.10
2022,04,25,07,31,8.10
2022,04,25,07,32,8.10
2022,04,25,07,33,8.10
2022,04,25,07,34,8.20
2022,04,25,07,35,8.20
2022,04,25,07,36,8.20
2022,04,25,07,37,8.20
2022,04,25,07,38,8.20
2022,04,25,07,39,8.30
2022,04,25,07,40,8.30
2022,04,25,07,41,8.30
2022,04,25,07,42,8.40
2022,04,25,07,43,8.40
2022,04,25,07,44,8.50
2022,04,25,07,45,8.50
2022,04,25,07,46,8.60
2022,04,25,07,47,8.60
2022,04,25,07,48,8.60
2022,04,25,07,49,8.70
2022,04,25,07,50,8.70
2022,04,25,07,51,8.70
2022,04,25,07,52,8.70
2022,04,25,07,53,8.70
2022,04,25,07,54,8.70
2022,04,25,07,55,8.80
2022,04,25,07,56,8.80
2022,04,25,07,57,8.80
2022,04,25,07,58,8.90
2022,04,25,07,59,8.90
2022,04,25,08,00,8.90
2022,04,25,08,01,9.00
2022,04,25,08,02,9.00
2022,04,25,08,03,9.10
2022,04,25,08,04,9.10
2022,04,25,08,05,9.20
2022,04,25,08,06,9.20
2022,04,25,08,07,9.20
2022,04,25,08,08,9.20
2022,04,25,08,09,9.20
2022,04,25,08,10,9.20
2022,04,25,08,11,9.20
2022,04,25,08,12,9.20
2022,04,25,08,13,9.20
2022,04,25,08,14,9.20
2022,04,25,08,15,9.20
2022,04,25,08,16,9.20
2022,04,25,08,17,9.20
2022,04,25,08,18,9.20
2022,04,25,08,19,9.20
2022,04,25,08,20,9.20
2022,04,25,08,21,9.20
2022,04,25,08,22,9.20
2022,04,25,08,23,9.20
2022,04,25,08,24,9.20
2022,04,25,08,25,9.20
2022,04,25,08,26,9.20
2022,04,25,08,27,9.20
2022,04,25,08,28,9.20
2022,04,25,08,29,9.20
2022,04,25,08,30,9.20
2022,04,25,08,31,9.20
2022,04,25,08,32,9.20
2022,04,25,08,33,9.20
2022,04,25,08,34,9.20
2022,04,25,08,35,9.20
2022,04,25,08,36,9.20
2022,04,25,08,37,9.30
2022,04,25,08,38,9.30
2022,04,25,08,39,9.30
2022,04,25,08,40,9.30
2022,04,25,08,41,9.30
2022,04,25,08,42,9.30
2022,04,25,08,43,9.30
2022,04,25,08,44,9.30
2022,04,25,08,45,9.40
2022,04,25,08,46,9.40
2022,04,25,08,47,9.40
2022,04,25,08,48,9.50
2022,04,25,08,49,9.60
2022,04,25,08,50,9.70
2022,04,25,08,51,9.70
2022,04,25,08,52,9.80
2022,04,25,08,53,9.90
2022,04,25,08,54,9.90
2022,04,25,08,55,10.00
2022,04,25,08,56,10.10
2022,04,25,08,57,10.10
2022,04,25,08,58,10.20
2022,04,25,08,59,10.30
2022,04,25,09,00,10.40
2022,04,25,09,01,10.40
2022,04,25,09,02,10.50
2022,04,25,09,03,10.60
2022,04,25,09,04,10.60
2022,04,25,09,05,10.70
2022,04,25,09,06,10.70
2022,04,25,09,07,10.80
2022,04,25,09,08,10.80
2022,04,25,09,09,10.90
2022,04,25,09,10,10.90
2022,04,25,09,11,10.90
2022,04,25,09,12,10.90
2022,04,25,09,13,10.90
2022,04,25,09,14,11.00
2022,04,25,09,15,11.10
2022,04,25,09,16,11.10
2022,04,25,09,17,11.10
2022,04,25,09,18,11.10
2022,04,25,09,19,11.10
2022,04,25,09,20,11.10
2022,04,25,09,21,11.10
2022,04,25,09,22,11.10
2022,04,25,09,23,11.10
2022,04,25,09,24,11.10
2022,04,25,09,25,11.10
2022,04,25,09,26,11.10
2022,04,25,09,27,11.20
2022,04,25,09,28,11.20
2022,04,25,09,29,11.30
2022,04,25,09,30,11.30
2022,04,25,09,31,11.40
2022,04,25,09,32,11.40
2022,04,25,09,33,11.60
2022,04,25,09,34,11.60
2022,04,25,09,35,11.60
2022,04,25,09,36,11.60
2022,04,25,09,37,11.70
2022,04,25,09,38,11.70
2022,04,25,09,39,11.70
2022,04,25,09,40,11.70
2022,04,25,09,41,11.70
2022,04,25,09,42,11.70
2022,04,25,09,43,11.80
2022,04,25,09,44,11.80
2022,04,25,09,45,11.80
2022,04,25,09,46,11.80
2022,04,25,09,47,11.80
2022,04,25,09,48,11.90
2022,04,25,09,49,11.90
2022,04,25,09,50,11.90
2022,04,25,09,51,11.90
2022,04,25,09,52,11.80
2022,04,25,09,53,11.80
2022,04,25,09,54,11.80
2022,04,25,09,55,11.90
2022,04,25,09,56,11.90
2022,04,25,09,57,12.00
2022,04,25,09,58,12.00
2022,04,25,09,59,12.00
2022,04,25,10,00,12.00
2022,04,25,10,01,12.00
2022,04,25,10,02,12.10
2022,04,25,10,03,12.10
2022,04,25,10,04,12.10
2022,04,25,10,05,12.10
2022,04,25,10,06,12.10
2022,04,25,10,07,12.20
2022,04,25,10,08,12.20
2022,04,25,10,09,12.30
2022,04,25,10,10,12.30
2022,04,25,10,11,12.40
2022,04,25,10,12,12.40
2022,04,25,10,13,12.50
2022,04,25,10,14,12.50
2022,04,25,10,15,12.60
2022,04,25,10,16,12.70
2022,04,25,10,17,12.80
2022,04,25,10,18,12.80
2022,04,25,10,19,12.80
2022,04,25,10,20,12.90
2022,04,25,10,21,12.90
2022,04,25,10,22,13.00
2022,04,25,10,23,13.00
2022,04,25,10,24,13.10
2022,04,25,10,25,13.10
2022,04,25,10,26,13.20
2022,04,25,10,27,13.20
2022,04,25,10,28,13.20
2022,04,25,10,29,13.20
2022,04,25,10,30,13.20
2022,04,25,10,31,13.10
2022,04,25,10,32,13.10
2022,04,25,10,33,13.10
2022,04,25,10,34,13.10
2022,04,25,10,35,13.00
2022,04,25,10,36,13.00
2022,04,25,10,37,13.00
2022,04,25,10,38,13.00
2022,04,25,10,39,13.00
2022,04,25,10,40,13.10
2022,04,25,10,41,13.10
2022,04,25,10,42,13.10
2022,04,25,10,43,13.10
2022,04,25,10,44,13.20
2022,04,25,10,45,13.20
2022,04,25,10,46,13.30
2022,04,25,10,47,13.30
2022,04,25,10,48,13.30
2022,04,25,10,49,13.30
2022,04,25,10,50,13.40
2022,04,25,10,51,13.40
2022,04,25,10,52,13.40
2022,04,25,10,53,13.40
2022,04,25,10,54,13.40
2022,04,25,10,55,13.50
2022,04,25,10,56,13.50
2022,04,25,10,57,13.50
2022,04,25,10,58,13.50
2022,04,25,10,59,13.60
2022,04,25,11,00,13.60
2022,04,25,11,01,13.70
2022,04,25,11,02,13.70
2022,04,25,11,03,13.80
2022,04,25,11,04,13.80
2022,04,25,11,05,13.80
2022,04,25,11,06,13.80
2022,04,25,11,07,13.90
2022,04,25,11,08,13.80
2022,04,25,11,09,13.90
2022,04,25,11,10,13.90
2022,04,25,11,11,13.90
2022,04,25,11,12,14.00
2022,04,25,11,13,14.00
2022,04,25,11,14,14.00
2022,04,25,11,15,14.10
2022,04,25,11,16,14.20
2022,04,25,11,17,14.20
2022,04,25,11,18,14.20
2022,04,25,11,19,14.30
2022,04,25,11,20,14.40
2022,04,25,11,21,14.40
2022,04,25,11,22,14.40
2022,04,25,11,23,14.30
2022,04,25,11,24,14.30
2022,04,25,11,25,14.20
2022,04,25,11,26,14.30
2022,04,25,11,27,14.30
2022,04,25,11,28,13.80
2022,04,25,11,29,13.40
2022,04,25,11,30,13.10
2022,04,25,11,31,12.80
2022,04,25,11,32,12.60
2022,04,25,11,33,12.50
2022,04,25,11,34,12.50
2022,04,25,11,35,12.40
2022,04,25,11,36,12.20
2022,04,25,11,37,12.10
2022,04,25,11,38,12.10
2022,04,25,11,39,12.10
2022,04,25,11,40,12.10
2022,04,25,11,41,12.10
2022,04,25,11,42,12.20
2022,04,25,11,43,12.20
2022,04,25,11,44,12.20
2022,04,25,11,45,11.90
2022,04,25,11,46,11.80
2022,04,25,11,47,11.60
2022,04,25,11,48,11.40
2022,04,25,11,49,11.40
2022,04,25,11,50,11.20
2022,04,25,11,51,11.30
2022,04,25,11,52,11.40
2022,04,25,11,53,11.40
2022,04,25,11,54,11.50
2022,04,25,11,55,11.60
2022,04,25,11,56,11.70
2022,04,25,11,57,11.80
2022,04,25,11,58,11.90
2022,04,25,11,59,11.90
2022,04,25,12,00,12.00
2022,04,25,12,01,12.00
2022,04,25,12,02,12.00
2022,04,25,12,03,11.90
2022,04,25,12,04,11.80
2022,04,25,12,05,11.70
2022,04,25,12,06,11.70
2022,04,25,12,07,11.80
2022,04,25,12,08,11.90
2022,04,25,12,09,12.10
2022,04,25,12,10,12.30
2022,04,25,12,11,12.50
2022,04,25,12,12,12.60
2022,04,25,12,13,12.70
2022,04,25,12,14,12.70
2022,04,25,12,15,12.70
2022,04,25,12,16,12.70
2022,04,25,12,17,12.80
2022,04,25,12,18,12.80
2022,04,25,12,19,12.80
2022,04,25,12,20,12.70
2022,04,25,12,21,12.70
2022,04,25,12,22,12.60
2022,04,25,12,23,12.60
2022,04,25,12,24,12.40
2022,04,25,12,25,12.10
2022,04,25,12,26,12.00
2022,04,25,12,27,11.90
2022,04,25,12,28,11.80
2022,04,25,12,29,11.60
2022,04,25,12,30,11.60
2022,04,25,12,31,11.50
2022,04,25,12,32,11.40
2022,04,25,12,33,11.40
2022,04,25,12,34,11.40
2022,04,25,12,35,11.40
2022,04,25,12,36,11.40
2022,04,25,12,37,11.30
2022,04,25,12,38,11.20
2022,04,25,12,39,11.30
2022,04,25,12,40,11.30
2022,04,25,12,41,11.30
2022,04,25,12,42,11.40
2022,04,25,12,43,11.30
2022,04,25,12,44,11.10
2022,04,25,12,45,11.10
2022,04,25,12,46,10.90
2022,04,25,12,47,10.90
2022,04,25,12,48,10.80
2022,04,25,12,49,10.80
2022,04,25,12,50,10.80
2022,04,25,12,51,10.80
2022,04,25,12,52,10.80
2022,04,25,12,53,10.80
2022,04,25,12,54,10.80
2022,04,25,12,55,10.80
2022,04,25,12,56,10.80
2022,04,25,12,57,10.70
2022,04,25,12,58,10.60
2022,04,25,12,59,10.40
2022,04,25,13,00,10.20
2022,04,25,13,01,10.10
2022,04,25,13,02,10.10
2022,04,25,13,03,10.10
2022,04,25,13,04,9.90
2022,04,25,13,05,9.90
2022,04,25,13,06,9.90
2022,04,25,13,07,10.10
2022,04,25,13,08,10.10
2022,04,25,13,09,10.10
2022,04,25,13,10,10.10
2022,04,25,13,11,10.20
2022,04,25,13,12,10.30
2022,04,25,13,13,10.30
2022,04,25,13,14,10.30
2022,04,25,13,15,10.30
2022,04,25,13,16,10.30
2022,04,25,13,17,10.40
2022,04,25,13,18,10.40
2022,04,25,13,19,10.40
2022,04,25,13,20,10.40
2022,04,25,13,21,10.40
2022,04,25,13,22,10.40
2022,04,25,13,23,10.40
2022,04,25,13,24,10.40
2022,04,25,13,25,10.40
2022,04,25,13,26,10.50
2022,04,25,13,27,10.60
2022,04,25,13,28,10.70
2022,04,25,13,29,10.90
2022,04,25,13,30,10.90
2022,04,25,13,31,11.10
2022,04,25,13,32,11.10
2022,04,25,13,33,11.30
2022,04,25,13,34,11.40
2022,04,25,13,35,11.60
2022,04,25,13,36,11.70
2022,04,25,13,37,11.80
2022,04,25,13,38,11.90
2022,04,25,13,39,12.00
2022,04,25,13,40,12.00
2022,04,25,13,41,12.10
2022,04,25,13,42,12.10
2022,04,25,13,43,12.10
2022,04,25,13,44,12.00
2022,04,25,13,45,12.00
2022,04,25,13,46,11.90
2022,04,25,13,47,11.90
2022,04,25,13,48,11.80
2022,04,25,13,49,11.70
2022,04,25,13,50,11.60
2022,04,25,13,51,11.60
2022,04,25,13,52,11.60
2022,04,25,13,53,11.60
2022,04,25,13,54,11.60
2022,04,25,13,55,11.60
2022,04,25,13,56,11.60
2022,04,25,13,57,11.60
2022,04,25,13,58,11.50
2022,04,25,13,59,11.40
2022,04,25,14,00,11.40
2022,04,25,14,01,11.40
2022,04,25,14,02,11.40
2022,04,25,14,03,11.30
2022,04,25,14,04,11.30
2022,04,25,14,05,11.30
2022,04,25,14,06,11.40
2022,04,25,14,07,11.40
2022,04,25,14,08,11.40
2022,04,25,14,09,11.40
2022,04,25,14,10,11.30
2022,04,25,14,11,11.30
2022,04,25,14,12,11.20
2022,04,25,14,13,11.20
2022,04,25,14,14,11.10
2022,04,25,14,15,11.00
2022,04,25,14,16,10.90
2022,04,25,14,17,10.90
2022,04,25,14,18,10.90
2022,04,25,14,19,10.90
2022,04,25,14,20,10.80
2022,04,25,14,21,10.80
2022,04,25,14,22,10.80
2022,04,25,14,23,10.80
2022,04,25,14,24,10.80
2022,04,25,14,25,10.70
2022,04,25,14,26,10.70
2022,04,25,14,27,10.70
2022,04,25,14,28,10.80
2022,04,25,14,29,10.80
2022,04,25,14,30,10.80
2022,04,25,14,31,10.80
2022,04,25,14,32,10.80
2022,04,25,14,33,10.80
2022,04,25,14,34,10.80
2022,04,25,14,35,10.70
2022,04,25,14,36,10.70
2022,04,25,14,37,10.70
2022,04,25,14,38,10.70
2022,04,25,14,39,10.70
2022,04,25,14,40,10.70
2022,04,25,14,41,10.60
2022,04,25,14,42,10.60
2022,04,25,14,43,10.70
2022,04,25,14,44,10.70
2022,04,25,14,45,10.70
2022,04,25,14,46,10.70
2022,04,25,14,47,10.70
2022,04,25,14,48,10.70
2022,04,25,14,49,10.70
2022,04,25,14,50,10.70
2022,04,25,14,51,10.80
2022,04,25,14,52,10.80
2022,04,25,14,53,10.80
2022,04,25,14,54,10.90
2022,04,25,14,55,10.90
2022,04,25,14,56,10.90
2022,04,25,14,57,11.00
2022,04,25,14,58,11.10
2022,04,25,14,59,11.20
2022,04,25,15,00,11.30
2022,04,25,15,01,11.50
2022,04,25,15,02,11.60
2022,04,25,15,03,11.70
2022,04,25,15,04,11.80
2022,04,25,15,05,11.90
2022,04,25,15,06,12.00
2022,04,25,15,07,12.00
2022,04,25,15,08,12.00
2022,04,25,15,09,12.10
2022,04,25,15,10,12.10
2022,04,25,15,11,12.10
2022,04,25,15,12,12.20
2022,04,25,15,13,12.20
2022,04,25,15,14,12.30
2022,04,25,15,15,12.30
2022,04,25,15,16,12.30
2022,04,25,15,17,12.30
2022,04,25,15,18,12.30
2022,04,25,15,19,12.30
2022,04,25,15,20,12.40
2022,04,25,15,21,12.40
2022,04,25,15,22,12.50
2022,04,25,15,23,12.50
2022,04,25,15,24,12.50
2022,04,25,15,25,12.50
2022,04,25,15,26,12.40
2022,04,25,15,27,12.30
2022,04,25,15,28,12.10
2022,04,25,15,29,12.10
2022,04,25,15,30,12.10
2022,04,25,15,31,12.20
2022,04,25,15,32,12.30
2022,04,25,15,33,12.50
2022,04,25,15,34,12.60
2022,04,25,15,35,12.80
2022,04,25,15,36,12.90
2022,04,25,15,37,13.00
2022,04,25,15,38,13.10
2022,04,25,15,39,13.20
2022,04,25,15,40,13.20
2022,04,25,15,41,13.30
2022,04,25,15,42,13.30
2022,04,25,15,43,13.30
2022,04,25,15,44,13.30
2022,04,25,15,45,13.30
2022,04,25,15,46,13.30
2022,04,25,15,47,13.20
2022,04,25,15,48,13.20
2022,04,25,15,49,13.10
2022,04,25,15,50,12.90
2022,04,25,15,51,12.90
2022,04,25,15,52,13.00
2022,04,25,15,53,13.00
2022,04,25,15,54,13.10
2022,04,25,15,55,13.20
2022,04,25,15,56,13.20
2022,04,25,15,57,13.10
2022,04,25,15,58,13.10
2022,04,25,15,59,13.20
2022,04,25,16,00,13.20
2022,04,25,16,01,13.30
2022,04,25,16,02,13.30
2022,04,25,16,03,13.20
2022,04,25,16,04,13.20
2022,04,25,16,05,13.10
2022,04,25,16,06,13.10
2022,04,25,16,07,13.10
2022,04,25,16,08,13.10
2022,04,25,16,09,13.20
2022,04,25,16,10,13.30
2022,04,25,16,11,13.30
2022,04,25,16,12,13.40
2022,04,25,16,13,13.50
2022,04,25,16,14,13.50
2022,04,25,16,15,13.40
2022,04,25,16,16,13.30
2022,04,25,16,17,13.30
2022,04,25,16,18,13.30
2022,04,25,16,19,13.30
2022,04,25,16,20,13.30
2022,04,25,16,21,13.30
2022,04,25,16,22,13.40
2022,04,25,16,23,13.50
2022,04,25,16,24,13.60
2022,04,25,16,25,13.70
2022,04,25,16,26,13.70
2022,04,25,16,27,13.70
2022,04,25,16,28,13.70
2022,04,25,16,29,13.70
2022,04,25,16,30,13.70
2022,04,25,16,31,13.70
2022,04,25,16,32,13.70
2022,04,25,16,33,13.70
2022,04,25,16,34,13.70
2022,04,25,16,35,13.60
2022,04,25,16,36,13.60
2022,04,25,16,37,13.60
2022,04,25,16,38,13.50
2022,04,25,16,39,13.60
2022,04,25,16,40,13.50
2022,04,25,16,41,13.50
2022,04,25,16,42,13.50
2022,04,25,16,43,13.50
2022,04,25,16,44,13.50
2022,04,25,16,45,13.50
2022,04,25,16,46,13.60
2022,04,25,16,47,13.60
2022,04,25,16,48,13.60
2022,04,25,16,49,13.60
2022,04,25,16,50,13.60
2022,04,25,16,51,13.60
2022,04,25,16,52,13.60
2022,04,25,16,53,13.60
2022,04,25,16,54,13.60
2022,04,25,16,55,13.60
2022,04,25,16,56,13.60
2022,04,25,16,57,13.50
2022,04,25,16,58,13.50
2022,04,25,16,59,13.50
2022,04,25,17,00,13.50
2022,04,25,17,01,13.50
2022,04,25,17,02,13.50
2022,04,25,17,03,13.40
2022,04,25,17,04,13.30
2022,04,25,17,05,13.30
2022,04,25,17,06,13.30
2022,04,25,17,07,13.30
2022,04,25,17,08,13.30
2022,04,25,17,09,13.30
2022,04,25,17,10,13.20
2022,04,25,17,11,13.20
2022,04,25,17,12,13.20
2022,04,25,17,13,13.20
2022,04,25,17,14,13.30
2022,04,25,17,15,13.30
2022,04,25,17,16,13.30
2022,04,25,17,17,13.40
2022,04,25,17,18,13.50
2022,04,25,17,19,13.60
2022,04,25,17,20,13.60
2022,04,25,17,21,13.70
2022,04,25,17,22,13.70
2022,04,25,17,23,13.60
2022,04,25,17,24,13.60
2022,04,25,17,25,13.50
2022,04,25,17,26,13.50
2022,04,25,17,27,13.50
2022,04,25,17,28,13.50
2022,04,25,17,29,13.40
2022,04,25,17,30,13.30
2022,04,25,17,31,13.30
2022,04,25,17,32,13.30
2022,04,25,17,33,13.30
2022,04,25,17,34,13.30
2022,04,25,17,35,13.30
2022,04,25,17,36,13.30
2022,04,25,17,37,13.30
2022,04,25,17,38,13.30
2022,04,25,17,39,13.30
2022,04,25,17,40,13.30
2022,04,25,17,41,13.30
2022,04,25,17,42,13.30